Quemado, NM

1:53 PM MDT on September 25, 2016 (GMT -0600)
Lordsburg

Weather History for KLSB - August, 2013

Change the Weather History Date:

Tuesday, August 20, 2013

  Actual Average Record
Temperature  
Mean Temperature 80 °F -  
Max Temperature 93 °F 93 °F 96 °F (2015)
Min Temperature 68 °F 62 °F 60 °F (2014)
Cooling Degree Days 16    
Growing Degree Days 30 (Base 50)    
Moisture  
Dew Point 55 °F    
Average Humidity 49    
Maximum Humidity 78    
Minimum Humidity 20    
Precipitation  
Precipitation 0.43 in - - ()
Sea Level Pressure  
Sea Level Pressure 30.10 in    
Wind  
Wind Speed 5 mph (SSW)    
Max Wind Speed 31 mph    
Max Gust Speed 23 mph    
Visibility 10 miles    
Events Rain , Thunderstorm    
Averages and records for this station are not official NWS values.
T = Trace of Precipitation, MM = Missing Value Source: NWS Daily Summary

Daily Weather History Graph

Daily Weather History Graph

Search for Another Location

Airport or City:

Trip Planner

Search our weather history database for the weather conditions in past years. The results will help you decide how hot, cold, wet, or windy it might be!

Date:

Astronomy

Aug. 20, 2013 Rise Set
Actual Time 6:42 AM MDT 7:53 PM MDT
Civil Twilight 6:16 AM MDT 8:18 PM MDT
Nautical Twilight 5:46 AM MDT 8:49 PM MDT
Astronomical Twilight 5:14 AM MDT 9:20 PM MDT
Moon 7:30 PM MDT (8/20) 6:14 AM MDT (8/20)
Length of Visible Light 14h 02m
Length of Day
13h 10m
Full, 100% of the Moon is Illuminated
Aug 20
Full
Aug 20
Full
Aug 28
Last Quarter
Sep 5
New
Sep 12
First Quarter

Hourly Weather History & Observations

Time (MDT) Temp. Heat Index Dew Point Humidity Pressure Visibility Wind Dir Wind Speed Gust Speed Precip Events Conditions
12:15 AM 78.8 °F - 53.6 °F 42% 30.12 in 10.0 mi North - - N/A   Mostly Cloudy
12:35 AM 78.8 °F - 53.6 °F 42% 30.11 in 10.0 mi East 5.8 mph - N/A   Mostly Cloudy
12:55 AM 77.0 °F - 53.6 °F 44% 30.10 in 10.0 mi Calm Calm - N/A   Scattered Clouds
1:15 AM 77.0 °F - 53.6 °F 44% 30.10 in 10.0 mi North - - N/A   Clear
1:35 AM 77.0 °F - 55.4 °F 47% 30.10 in 10.0 mi NW 3.5 mph - N/A   Scattered Clouds
1:55 AM 75.2 °F - 53.6 °F 47% 30.10 in 10.0 mi Calm Calm - N/A   Scattered Clouds
2:15 AM 77.0 °F - 53.6 °F 44% 30.10 in 10.0 mi North - - N/A   Scattered Clouds
2:35 AM 77.0 °F - 53.6 °F 44% 30.10 in 10.0 mi Calm Calm - N/A   Overcast
2:55 AM 77.0 °F - 53.6 °F 44% 30.10 in 10.0 mi WNW 4.6 mph - N/A   Overcast
3:15 AM 75.2 °F - 55.4 °F 50% 30.10 in 10.0 mi Calm Calm - N/A Rain Light Rain
3:35 AM 73.4 °F - 55.4 °F 53% 30.10 in 10.0 mi Calm Calm - N/A   Scattered Clouds
3:55 AM 73.4 °F - 53.6 °F 50% 30.11 in 10.0 mi SSE 6.9 mph - N/A   Mostly Cloudy
4:15 AM 73.4 °F - 55.4 °F 53% 30.10 in 10.0 mi North - - N/A   Mostly Cloudy
4:35 AM 73.4 °F - 55.4 °F 53% 30.10 in 10.0 mi SSE 5.8 mph - N/A   Overcast
4:55 AM 73.4 °F - 55.4 °F 53% 30.10 in 10.0 mi SSE 5.8 mph - N/A   Mostly Cloudy
5:15 AM 73.4 °F - 53.6 °F 50% 30.10 in 10.0 mi South 4.6 mph - N/A   Scattered Clouds
5:35 AM 71.6 °F - 53.6 °F 53% 30.10 in 10.0 mi South 6.9 mph - N/A   Clear
5:55 AM 71.6 °F - 53.6 °F 53% 30.10 in 10.0 mi SW 5.8 mph - N/A   Clear
6:15 AM 71.6 °F - 53.6 °F 53% 30.10 in 10.0 mi SSW 6.9 mph - N/A   Clear
6:35 AM 71.6 °F - 51.8 °F 50% 30.10 in 10.0 mi SW 5.8 mph - N/A   Clear
6:55 AM 69.8 °F - 51.8 °F 53% 30.11 in 10.0 mi NNW 3.5 mph - N/A   Clear
7:15 AM 69.8 °F - 53.6 °F 56% 30.11 in 10.0 mi NNW 3.5 mph - N/A   Clear
7:35 AM 69.8 °F - 53.6 °F 56% 30.11 in 10.0 mi NNE 4.6 mph - N/A   Clear
7:55 AM 69.8 °F - 55.4 °F 60% 30.11 in 10.0 mi Calm Calm - N/A   Clear
8:15 AM 71.6 °F - 55.4 °F 57% 30.11 in 10.0 mi Calm Calm - N/A   Clear
8:35 AM 73.4 °F - 55.4 °F 53% 30.12 in 10.0 mi Calm Calm - N/A   Clear
8:55 AM 73.4 °F - 53.6 °F 50% 30.12 in 10.0 mi Calm Calm - N/A   Clear
9:15 AM 77.0 °F - 53.6 °F 44% 30.12 in 10.0 mi Calm Calm - N/A   Clear
9:35 AM 78.8 °F - 53.6 °F 42% 30.12 in 10.0 mi Calm Calm - N/A   Clear
9:55 AM 80.6 °F 80.3 °F 53.6 °F 39% 30.12 in 10.0 mi Calm Calm - N/A   Clear
10:15 AM 80.6 °F - 51.8 °F 37% 30.12 in 10.0 mi ESE 3.5 mph - N/A   Clear
10:35 AM 84.2 °F - 51.8 °F 33% 30.13 in 10.0 mi SSE 3.5 mph - N/A   Clear
10:55 AM 82.4 °F - 51.8 °F 35% 30.12 in 10.0 mi South 3.5 mph - N/A   Clear
11:15 AM 86.0 °F - 51.8 °F 31% 30.12 in 10.0 mi East 3.5 mph - N/A   Clear
11:35 AM 84.2 °F - 51.8 °F 33% 30.12 in 10.0 mi Calm Calm - N/A   Clear
11:55 AM 86.0 °F - 51.8 °F 31% 30.11 in 10.0 mi Calm Calm - N/A   Clear
12:15 PM 87.8 °F - 51.8 °F 29% 30.11 in 10.0 mi SSE 3.5 mph - N/A   Clear
12:35 PM 89.6 °F - 50.0 °F 26% 30.10 in 10.0 mi SE 4.6 mph - N/A   Clear
12:55 PM 89.6 °F - 50.0 °F 26% 30.09 in 10.0 mi Calm Calm - N/A   Clear
1:15 PM 89.6 °F - 50.0 °F 26% 30.09 in 10.0 mi Calm Calm - N/A   Clear
1:35 PM 91.4 °F - 50.0 °F 24% 30.08 in 10.0 mi Calm Calm - N/A   Clear
1:55 PM 91.4 °F - 50.0 °F 24% 30.06 in 10.0 mi SE 6.9 mph - N/A   Clear
2:15 PM 93.2 °F - 50.0 °F 23% 30.05 in 10.0 mi SE 8.1 mph - N/A   Clear
2:35 PM 91.4 °F - 48.2 °F 23% 30.04 in 10.0 mi Calm Calm - N/A   Mostly Cloudy
2:55 PM 93.2 °F - 48.2 °F 21% 30.03 in 10.0 mi ESE 6.9 mph - N/A Thunderstorm Mostly Cloudy
3:15 PM 91.4 °F - 48.2 °F 23% 30.02 in 10.0 mi North - - N/A Thunderstorm Mostly Cloudy
3:35 PM 91.4 °F - 46.4 °F 21% 30.01 in 10.0 mi SSE 9.2 mph 16.1 mph N/A Thunderstorm Scattered Clouds
3:55 PM 93.2 °F - 46.4 °F 20% 30.01 in 10.0 mi SSW 3.5 mph - N/A Thunderstorm Scattered Clouds
4:15 PM 93.2 °F - 46.4 °F 20% 30.00 in 10.0 mi East 8.1 mph - N/A Thunderstorm Scattered Clouds
4:35 PM 87.8 °F - 51.8 °F 29% 30.03 in 7.0 mi NE 31.1 mph - N/A Thunderstorm Thunderstorm
4:55 PM 73.4 °F - 59.0 °F 61% 30.06 in 10.0 mi North - - N/A Rain , Thunderstorm Light Thunderstorms and Rain
5:15 PM 73.4 °F - 53.6 °F 50% 30.07 in 2.0 mi NW 5.8 mph 16.1 mph 0.20 in Rain , Thunderstorm Heavy Thunderstorms and Rain
5:35 PM 69.8 °F - 59.0 °F 68% 30.06 in 7.0 mi WSW 13.8 mph - 0.37 in Rain , Thunderstorm Light Thunderstorms and Rain
5:55 PM 71.6 °F - 59.0 °F 64% 30.07 in 10.0 mi SW 12.7 mph - 0.39 in Rain Rain
6:15 PM 73.4 °F - 60.8 °F 65% 30.07 in 10.0 mi Calm Calm - N/A   Light Drizzle
6:35 PM 71.6 °F - 62.6 °F 73% 30.07 in 10.0 mi West 5.8 mph - N/A Rain , Thunderstorm Light Thunderstorms and Rain
6:55 PM 71.6 °F - 60.8 °F 69% 30.08 in 10.0 mi West 10.4 mph - 0.01 in Rain , Thunderstorm Light Thunderstorms and Rain
7:15 PM 71.6 °F - 62.6 °F 73% 30.08 in 10.0 mi North - - 0.01 in Rain Light Rain
7:35 PM 71.6 °F - 60.8 °F 69% 30.10 in 10.0 mi WSW 8.1 mph - 0.02 in Rain Light Rain
7:55 PM 71.6 °F - 62.6 °F 73% 30.11 in 10.0 mi SW 11.5 mph - 0.02 in Rain Light Rain
8:15 PM 69.8 °F - 62.6 °F 78% 30.11 in 10.0 mi SSW 15.0 mph 20.7 mph 0.01 in Rain Light Rain
8:35 PM 69.8 °F - 60.8 °F 73% 30.11 in 10.0 mi SSW 17.3 mph 23.0 mph 0.01 in Rain Light Rain
8:55 PM 69.8 °F - 60.8 °F 73% 30.10 in 10.0 mi SSW 11.5 mph 21.9 mph 0.01 in   Clear
9:15 PM 69.8 °F - 59.0 °F 68% 30.10 in 10.0 mi SSW 16.1 mph 23.0 mph N/A   Clear
9:35 PM 69.8 °F - 59.0 °F 68% 30.12 in 10.0 mi SW 9.2 mph - N/A   Mostly Cloudy
9:55 PM 71.6 °F - 59.0 °F 64% 30.14 in 10.0 mi North 10.4 mph - N/A   Overcast
10:15 PM 69.8 °F - 60.8 °F 73% 30.14 in 10.0 mi NNW 6.9 mph - N/A   Mostly Cloudy
10:35 PM 69.8 °F - 60.8 °F 73% 30.15 in 10.0 mi NNW 10.4 mph - N/A   Mostly Cloudy
10:55 PM 68.0 °F - 60.8 °F 78% 30.16 in 10.0 mi NW 13.8 mph - N/A   Overcast
11:15 PM 68.0 °F - 60.8 °F 78% 30.15 in 10.0 mi WNW 9.2 mph - N/A   Overcast
11:35 PM 68.0 °F - 60.8 °F 78% 30.14 in 10.0 mi West 5.8 mph - N/A   Scattered Clouds
11:55 PM 69.8 °F - 59.0 °F 68% 30.12 in 10.0 mi SW 5.8 mph - N/A   Mostly Cloudy